Notices

What's New in latest Release from April 7th, 2021:

- Updated Glossary, including Speed of Maximum Gust, and Total Hourly Precipitation

- Updated national and regional climate services offices contacts and prices information

- Addition of station inventory lists for 1981-2010, 1971-2000, and 1961-1990 Normals.

If you haven't already, please take our survey and provide feedback about our website: https://eccc.sondage-survey.ca/f/LanguageSelection.aspx?s=442ca660-fcf1-47c0-95a9-59707d6fd709

Hourly Data Report for April 08, 2017

MIRAMICHI RCS
NEW BRUNSWICK

47°00'34.000" N
65°27'54.000" W
33.00 m
8100989
71744
ACQ

Download Data

Hourly Data (April 2017)
Hourly Data Report for April 8, 2017
TIME
LST
Temp Definition
°C
Dew Point Definition
°C
Rel Hum Definition
%
Precip. Amount Definition
mm

Wind Dir Definition
10's deg

Wind Spd Definition
km/h
Visibility Definition
km
Stn Press Definition
kPa
Hmdx Definition


Wind Chill Definition


Weather Definition


00:00 4.8 2.1 83 0.0 18 13   98.78     LegendNANA
01:00 3.9 1.2 83 0.0 20 15   98.79     LegendNANA
02:00 3.2 0.7 84 0.0 19 11   98.76     LegendNANA
03:00 3.3 0.8 83 0.0 22 8   98.79     LegendNANA
04:00 3.2 0.8 84 0.0 20 9   98.78     LegendNANA
05:00 3.3 0.9 85 0.0 19 9   98.79     LegendNANA
06:00 3.4 1.4 86 0.0 20 9   98.81     LegendNANA
07:00 3.4 1.4 87 0.0 20 5   98.85     LegendNANA
08:00 3.3 2.1 91 0.0 19 9   98.89     LegendNANA
09:00 4.1 2.5 90 0.0 20 13   98.91     LegendNANA
10:00 5.0 2.7 85 0.0 21 13   98.92     LegendNANA
11:00 5.6 2.6 81 0.0 21 16   98.94     LegendNANA
12:00 5.6 2.5 80 0.0 20 21   98.96     LegendNANA
13:00 5.8 2.7 81 0.0 20 22   98.99     LegendNANA
14:00 6.0 2.9 81 0.0 25 18   99.01     LegendNANA
15:00 6.3 2.6 77 0.0 24 21   99.03     LegendNANA
16:00 5.5 3.5 87 0.0 24 14   99.09     LegendNANA
17:00 5.7 3.6 86 0.0 25 12   99.17     LegendNANA
18:00 6.0 2.9 81 0.0 25 14   99.26     LegendNANA
19:00 4.6 3.1 90 0.3 26 11   99.37     LegendNANA
20:00 4.0 3.0 93 0.0 27 6   99.47     LegendNANA
21:00 3.7 2.1 89 0.0 25 8   99.58     LegendNANA
22:00 3.6 1.5 86 0.0 27 9   99.65     LegendNANA
23:00 3.1 1.1 87 0.0 27 8   99.69     LegendNANA

Notes on Data Quality.

Legend

  • E = Estimated
  • M = Missing
  • NA = Not Available*
  • [empty] = Indicates an unobserved value
Date modified: